Change the Weather History Date:

Thursday, July 25, 2013

  Actual Average Record
Temperature  
Mean Temperature 68 °F 75 °F  
Max Temperature 81 °F 86 °F 105 °F (1940)
Min Temperature 54 °F 65 °F 52 °F (1933)
Degree Days  
Heating Degree Days 0 0  
Month to date heating degree days 0 0  
Since 1 June heating degree days 27 19  
Since 1 July heating degree days 0 0  
Cooling Degree Days 3 10  
Month to date cooling degree days 245 266  
Year to date cooling degree days 538 556  
Since 1 June cooling degree days 448 480  
Growing Degree Days 18 (Base 50)    
Moisture  
Dew Point 57 °F    
Average Humidity 72    
Maximum Humidity 93    
Minimum Humidity 51    
Precipitation  
Precipitation T in 0.13 in 1.80 in (1992)
Month to date precipitation 1.36 3.56  
Year to date precipitation 30.65 21.91  
Snow  
Snow 0.00 in 0.00 in - ()
Month to date snowfall 0.0 0.0  
Since 1 June snowfall 0.0 0.0  
Since 1 July snowfall 0.0 0.0  
Snow Depth 0.00 in    
Sea Level Pressure  
Sea Level Pressure 30.06 in    
Wind  
Wind Speed 4 mph (SSW)    
Max Wind Speed 12 mph    
Max Gust Speed 15 mph    
Visibility 10 miles    
Events      
T = Trace of Precipitation, MM = Missing Value Source: NWS Daily Summary

Daily Weather History Graph

Daily Weather History Graph

Search for Another Location

Airport or City:

Trip Planner

Search our weather history database for the weather conditions in past years. The results will help you decide how hot, cold, wet, or windy it might be!

Date:

Astronomy

Jul. 25, 2013 Rise Set
Actual Time 5:50 AM CDT 8:26 PM CDT
Civil Twilight 5:18 AM CDT 8:57 PM CDT
Nautical Twilight 4:38 AM CDT 9:37 PM CDT
Astronomical Twilight 3:53 AM CDT 10:22 PM CDT
Moon 10:03 PM CDT (7/25) 9:23 AM CDT (7/25)
Length of Visible Light 15h 39m
Length of Day
14h 35m
Waning Gibbous, 88% of the Moon is Illuminated
Jul 25
Waning Gibbous
Jul 29
Last Quarter
Aug 6
New
Aug 14
First Quarter
Aug 20
Full

Hourly Weather History & Observations

Time (CDT) Temp. Heat Index Dew Point Humidity Pressure Visibility Wind Dir Wind Speed Gust Speed Precip Events Conditions
12:52 AM 57.9 °F - 55.0 °F 90% 30.05 in 10.0 mi Calm Calm - N/A   Clear
1:52 AM 57.0 °F - 54.0 °F 89% 30.05 in 10.0 mi Calm Calm - N/A   Clear
2:52 AM 57.0 °F - 54.0 °F 89% 30.04 in 10.0 mi Calm Calm - N/A   Clear
3:52 AM 55.0 °F - 53.1 °F 93% 30.07 in 10.0 mi Calm Calm - N/A   Clear
4:52 AM 55.9 °F - 53.1 °F 90% 30.07 in 10.0 mi Calm Calm - N/A   Clear
5:52 AM 55.0 °F - 53.1 °F 93% 30.08 in 10.0 mi Calm Calm - N/A   Clear
6:52 AM 59.0 °F - 54.0 °F 83% 30.09 in 10.0 mi Calm Calm - N/A   Clear
7:52 AM 64.9 °F - 55.0 °F 70% 30.09 in 10.0 mi Calm Calm - N/A   Clear
8:52 AM 68.0 °F - 57.0 °F 68% 30.09 in 10.0 mi SSW 3.5 mph - N/A   Clear
9:52 AM 72.0 °F - 57.0 °F 59% 30.09 in 10.0 mi SSW 8.1 mph - N/A   Clear
10:52 AM 75.0 °F - 57.9 °F 55% 30.09 in 10.0 mi SW 5.8 mph - N/A   Clear
11:52 AM 75.9 °F - 57.9 °F 54% 30.10 in 10.0 mi South 5.8 mph - N/A   Clear
12:52 PM 79.0 °F - 59.0 °F 50% 30.09 in 10.0 mi SW 6.9 mph - N/A   Clear
1:52 PM 80.1 °F 81.1 °F 61.0 °F 52% 30.07 in 10.0 mi SSW 6.9 mph - N/A   Mostly Cloudy
2:52 PM 79.0 °F - 59.0 °F 50% 30.04 in 10.0 mi WSW 6.9 mph - N/A   Mostly Cloudy
4:52 PM 79.0 °F - 60.1 °F 52% 30.03 in 10.0 mi SSW 6.9 mph - N/A   Scattered Clouds
5:52 PM 80.1 °F 80.9 °F 60.1 °F 50% 30.03 in 10.0 mi SSW 9.2 mph - N/A   Clear
6:52 PM 77.0 °F - 61.0 °F 58% 30.03 in 10.0 mi SSW 5.8 mph - N/A   Clear
7:52 PM 75.0 °F - 62.1 °F 64% 30.02 in 10.0 mi SSW 4.6 mph - N/A   Clear
8:52 PM 73.0 °F - 60.1 °F 64% 30.03 in 10.0 mi South 5.8 mph - N/A   Clear
9:52 PM 72.0 °F - 60.1 °F 66% 30.04 in 10.0 mi South 5.8 mph - N/A   Clear
10:52 PM 71.1 °F - 61.0 °F 70% 30.04 in 10.0 mi Calm Calm - N/A   Clear
11:52 PM 70.0 °F - 60.1 °F 71% 30.03 in 10.0 mi Calm Calm - N/A   Scattered Clouds